When you browse on this site, cookies collect data to enhance your experience and personalize the content and advertising you see.
Visit our Privacy Policy to learn more. By continuing to use the site, you agree to this use of cookies and data.
  • Em Portugal
  • Lista de países
  • Para 7 dias
  • Temperatura da água
  • Mapas de satélite
  • Mapa do tempo
  • Widgets de tempo
  • user-avatar
    Iniciar Sessão

    Previsão horária em Anielewo

    Hoje, 17 Junho, Segunda-feira

    Tempo Temperatura Precipitação Vento Pressão Humidade
    00:00 +13°C° 0 mm 3 m/s 756 mmHg 82%
    01:00 +13°C° 0 mm 3 m/s 756 mmHg 77%
    02:00 +12°C° 0 mm 3 m/s 756 mmHg 79%
    03:00 +13°C° 0 mm 2 m/s 756 mmHg 82%
    04:00 +13°C° 0 mm 2 m/s 756 mmHg 84%
    05:00 +13°C° 0 mm 3 m/s 757 mmHg 81%
    06:00 +16°C° 0 mm 3 m/s 757 mmHg 79%
    07:00 +18°C° 0 mm 3 m/s 757 mmHg 77%
    08:00 +19°C° 0 mm 3 m/s 757 mmHg 71%
    09:00 +20°C° 0 mm 4 m/s 757 mmHg 66%
    10:00 +22°C° 0 mm 4 m/s 757 mmHg 60%
    11:00 +22°C° 0 mm 3 m/s 757 mmHg 58%
    12:00 +24°C° 0 mm 3 m/s 757 mmHg 55%
    13:00 +25°C° 0 mm 3 m/s 757 mmHg 53%
    14:00 +25°C° 0 mm 3 m/s 757 mmHg 54%
    15:00 +25°C° 0 mm 3 m/s 757 mmHg 54%
    16:00 +25°C° 0 mm 2 m/s 756 mmHg 55%
    17:00 +24°C° 0 mm 2 m/s 756 mmHg 61%
    18:00 +23°C° 0 mm 2 m/s 756 mmHg 66%
    19:00 +21°C° 0 mm 2 m/s 756 mmHg 72%
    20:00 +19°C° 0 mm 2 m/s 756 mmHg 74%
    21:00 +18°C° 0 mm 2 m/s 757 mmHg 76%
    22:00 +17°C° 0 mm 2 m/s 757 mmHg 78%
    23:00 +16°C° 0 mm 2 m/s 757 mmHg 78%

    Amanhã, 18 Junho, Terça-feira

    Tempo Temperatura Precipitação Vento Pressão Humidade
    00:00 +16°C° 0 mm 2 m/s 757 mmHg 78%
    01:00 +15°C° 0 mm 2 m/s 757 mmHg 78%
    02:00 +15°C° 0 mm 2 m/s 757 mmHg 79%
    03:00 +14°C° 0 mm 2 m/s 757 mmHg 81%
    04:00 +14°C° 0 mm 2 m/s 756 mmHg 82%
    05:00 +14°C° 0 mm 3 m/s 756 mmHg 79%
    06:00 +16°C° 0 mm 3 m/s 757 mmHg 77%
    07:00 +18°C° 0 mm 3 m/s 757 mmHg 74%
    08:00 +19°C° 0 mm 3 m/s 757 mmHg 69%
    09:00 +21°C° 0 mm 4 m/s 756 mmHg 64%
    10:00 +22°C° 0 mm 4 m/s 756 mmHg 58%
    11:00 +23°C° 0 mm 4 m/s 756 mmHg 57%
    12:00 +23°C° 0 mm 4 m/s 755 mmHg 56%
    13:00 +25°C° 0 mm 4 m/s 755 mmHg 55%
    14:00 +25°C° 0 mm 4 m/s 755 mmHg 56%
    15:00 +25°C° 0 mm 4 m/s 754 mmHg 57%
    16:00 +25°C° 0 mm 4 m/s 754 mmHg 58%
    17:00 +23°C° 0 mm 4 m/s 754 mmHg 64%
    18:00 +22°C° 0 mm 3 m/s 753 mmHg 70%
    19:00 +21°C° 0 mm 3 m/s 753 mmHg 75%
    20:00 +20°C° 0 mm 3 m/s 753 mmHg 77%
    21:00 +19°C° 0 mm 3 m/s 753 mmHg 79%
    22:00 +18°C° 0 mm 3 m/s 753 mmHg 80%
    23:00 +17°C° 0 mm 3 m/s 753 mmHg 83%

    Depois de amanhã, 19 Junho, Quarta-feira

    Tempo Temperatura Precipitação Vento Pressão Humidade
    00:00 +17°C° 0 mm 3 m/s 753 mmHg 86%
    01:00 +17°C° 0 mm 3 m/s 752 mmHg 90%
    02:00 +17°C° 0 mm 3 m/s 752 mmHg 90%
    03:00 +17°C° 0 mm 3 m/s 752 mmHg 91%
    04:00 +16°C° 0 mm 3 m/s 752 mmHg 91%
    05:00 +18°C° 0 mm 3 m/s 752 mmHg 88%
    06:00 +20°C° 0 mm 4 m/s 751 mmHg 84%
    07:00 +21°C° 0 mm 4 m/s 751 mmHg 80%
    08:00 +23°C° 0 mm 4 m/s 751 mmHg 76%
    09:00 +25°C° 0 mm 4 m/s 751 mmHg 73%
    10:00 +26°C° 0 mm 4 m/s 751 mmHg 69%
    11:00 +27°C° 0.1 mm 4 m/s 750 mmHg 69%
    12:00 +27°C° 0.1 mm 3 m/s 750 mmHg 68%
    13:00 +27°C° 0.1 mm 3 m/s 749 mmHg 68%
    14:00 +28°C° 0.1 mm 3 m/s 749 mmHg 66%
    15:00 +28°C° 0.1 mm 2 m/s 749 mmHg 64%
    16:00 +28°C° 0.1 mm 2 m/s 749 mmHg 62%
    17:00 +27°C° 0 mm 2 m/s 748 mmHg 67%
    18:00 +26°C° 0 mm 2 m/s 748 mmHg 71%
    19:00 +26°C° 0 mm 2 m/s 748 mmHg 76%
    20:00 +24°C° 0 mm 2 m/s 748 mmHg 78%
    21:00 +23°C° 0 mm 2 m/s 748 mmHg 81%
    22:00 +21°C° 0 mm 2 m/s 748 mmHg 83%
    23:00 +21°C° 0 mm 2 m/s 748 mmHg 84%

    20 Junho, Quinta-feira

    Tempo Temperatura Precipitação Vento Pressão Humidade
    00:00 +20°C° 0 mm 2 m/s 748 mmHg 85%
    01:00 +20°C° 0 mm 2 m/s 748 mmHg 86%
    02:00 +20°C° 0 mm 2 m/s 748 mmHg 86%
    03:00 +20°C° 0 mm 2 m/s 748 mmHg 86%
    04:00 +19°C° 0 mm 2 m/s 748 mmHg 86%
    05:00 +21°C° 0 mm 2 m/s 748 mmHg 82%
    06:00 +23°C° 0 mm 2 m/s 748 mmHg 78%
    07:00 +25°C° 0 mm 2 m/s 748 mmHg 74%
    08:00 +26°C° 0.3 mm 2 m/s 749 mmHg 70%
    09:00 +27°C° 0.3 mm 2 m/s 749 mmHg 66%
    10:00 +28°C° 0.3 mm 2 m/s 749 mmHg 63%
    11:00 +29°C° 0.1 mm 2 m/s 749 mmHg 58%
    12:00 +30°C° 0.1 mm 2 m/s 749 mmHg 54%
    13:00 +30°C° 0.1 mm 2 m/s 749 mmHg 50%
    14:00 +30°C° 0.1 mm 2 m/s 749 mmHg 51%
    15:00 +30°C° 0.1 mm 1 m/s 749 mmHg 52%
    16:00 +30°C° 0.1 mm 1 m/s 749 mmHg 52%
    17:00 +29°C° 0.3 mm 2 m/s 749 mmHg 60%
    18:00 +27°C° 0.3 mm 2 m/s 749 mmHg 67%
    19:00 +26°C° 0.3 mm 2 m/s 749 mmHg 74%
    20:00 +25°C° 0 mm 2 m/s 749 mmHg 79%
    21:00 +23°C° 0 mm 2 m/s 749 mmHg 83%
    22:00 +21°C° 0 mm 3 m/s 750 mmHg 88%
    23:00 +21°C° 0.2 mm 2 m/s 749 mmHg 90%

    21 Junho, Sexta-feira

    Tempo Temperatura Precipitação Vento Pressão Humidade
    00:00 +20°C° 0.2 mm 2 m/s 749 mmHg 92%
    01:00 +19°C° 0.2 mm 2 m/s 749 mmHg 94%
    02:00 +19°C° 0.5 mm 2 m/s 749 mmHg 94%
    03:00 +19°C° 0.5 mm 2 m/s 749 mmHg 95%
    04:00 +18°C° 0.5 mm 2 m/s 749 mmHg 95%
    05:00 +21°C° 0.4 mm 1 m/s 749 mmHg 91%
    06:00 +22°C° 0.4 mm 1 m/s 749 mmHg 87%
    07:00 +24°C° 0.4 mm 1 m/s 749 mmHg 82%
    08:00 +25°C° 1.2 mm 1 m/s 750 mmHg 77%
    09:00 +26°C° 1.2 mm 2 m/s 750 mmHg 71%
    10:00 +28°C° 1.2 mm 2 m/s 750 mmHg 65%
    11:00 +28°C° 0.8 mm 3 m/s 750 mmHg 68%
    12:00 +27°C° 0.8 mm 4 m/s 750 mmHg 70%
    13:00 +27°C° 0.8 mm 4 m/s 750 mmHg 72%
    14:00 +27°C° 0.8 mm 5 m/s 750 mmHg 73%
    15:00 +26°C° 0.8 mm 5 m/s 750 mmHg 73%
    16:00 +26°C° 0.8 mm 5 m/s 750 mmHg 73%
    17:00 +25°C° 0 mm 4 m/s 750 mmHg 76%
    18:00 +23°C° 0 mm 4 m/s 750 mmHg 79%
    19:00 +22°C° 0 mm 3 m/s 751 mmHg 83%
    20:00 +21°C° 0 mm 3 m/s 751 mmHg 86%
    21:00 +20°C° 0 mm 3 m/s 752 mmHg 90%
    22:00 +19°C° 0 mm 3 m/s 752 mmHg 93%
    23:00 +18°C° 0 mm 3 m/s 752 mmHg 95%

    22 Junho, Sábado

    Tempo Temperatura Precipitação Vento Pressão Humidade
    00:00 +17°C° 0 mm 3 m/s 753 mmHg 96%
    01:00 +17°C° 0 mm 3 m/s 753 mmHg 97%
    02:00 +16°C° 0 mm 3 m/s 753 mmHg 96%
    03:00 +16°C° 0 mm 3 m/s 753 mmHg 96%
    04:00 +14°C° 0 mm 3 m/s 753 mmHg 95%
    05:00 +16°C° 0 mm 3 m/s 754 mmHg 91%
    06:00 +17°C° 0 mm 4 m/s 754 mmHg 87%
    07:00 +18°C° 0 mm 4 m/s 754 mmHg 82%
    08:00 +19°C° 0 mm 4 m/s 755 mmHg 75%
    09:00 +20°C° 0 mm 4 m/s 755 mmHg 69%
    10:00 +21°C° 0 mm 3 m/s 755 mmHg 62%
    11:00 +21°C° 0 mm 4 m/s 755 mmHg 61%
    12:00 +22°C° 0 mm 4 m/s 755 mmHg 60%
    13:00 +22°C° 0 mm 4 m/s 755 mmHg 59%
    14:00 +22°C° 0 mm 4 m/s 754 mmHg 60%
    15:00 +22°C° 0 mm 4 m/s 754 mmHg 62%
    16:00 +22°C° 0 mm 4 m/s 754 mmHg 64%
    17:00 +21°C° 0 mm 4 m/s 754 mmHg 68%
    18:00 +20°C° 0 mm 4 m/s 754 mmHg 72%
    19:00 +20°C° 0 mm 4 m/s 754 mmHg 75%
    20:00 +19°C° 0 mm 5 m/s 754 mmHg 73%
    21:00 +17°C° 0 mm 5 m/s 754 mmHg 71%
    22:00 +17°C° 0 mm 6 m/s 754 mmHg 69%
    23:00 +16°C° 0 mm 6 m/s 754 mmHg 69%
    Mostrar mais